Location: ??????
(56.0120°N, 39.1740°E)
Time: 17:31:39
(UTC+00:00)

SL-08 R/B - Pass Details

Date: 14 April 2026
Orbit: 667 x 728 km, 98.5° (Epoch: 16 May)

Event Time Altitude Azimuth Distance (km) Brightness Sun altitude
Rises 17:48:07 0° 17° (NNE) 3,145 6.9 -10.8°
Reaches altitude 10° 17:50:26 10° 22° (NNE) 2,226 6.1 -11.0°
Maximum altitude 17:55:17 61° 102° (ESE) 831 3.4 -11.6°
Drops below altitude 10° 18:00:07 10° 183° (S) 2,224 5.6 -12.1°
Sets 18:02:25 0° 187° (S) 3,141 6.4 -12.3°
